USA 115 (MILSTAR-1 2)

Last updated on Tue Sep 22 2026 00:03:10 GMT+0000 (Coordinated Universal Time)

1 23712U 95060A 26264.15130926 -.00000199 00000+0 00000+0 0 9990 2 23712 14.1072 3.0186 0006229 159.3098 162.2202 1.00274815 33845
UTC large
Height (km)
Speed (km/s)
/
Latitude / Longitude
Inclination (degrees)
Orbital Period (minutes)
Azimuth
Elevation
Range (km)
Doppler Factor

Next 0 passes for location: London (51.5072 / 0.1276)

No passes found over London.
USA 115 (MILSTAR-1 2)